Overview Statistics Trail Chart Weather Telemetry Raw packets
 

This is the latest recevied weather packets stored in our database for station/object W0WFX-2. If no packets are shown the sender has not sent any weather packets the latest 10 day(s).

<< 81 82 83 84 85 86 87 >>
Time Temp. Humidity Pressure Rain* Wind** Luminosity Snow
1788046996 33.89° C 40% 1012.4 hPa 0 mm - 41 W/m² -
1788046696 33.89° C 39% 1012.5 hPa 0 mm - 43 W/m² -
1788046391 33.89° C 39% 1012.3 hPa 0 mm - 44 W/m² -
1788046098 33.89° C 39% 1012.5 hPa 0 mm - 46 W/m² -
1788045784 34.44° C 38% 1012.4 hPa 0 mm - 48 W/m² -
1788045479 34.44° C 38% 1012.4 hPa 0 mm - 50 W/m² -
1788045175 34.44° C 37% 1012.7 hPa 0 mm - 52 W/m² -
1788044875 35° C 37% 1012.5 hPa 0 mm - 57 W/m² -
1788044569 35° C 37% 1012.6 hPa 0 mm - 56 W/m² -
1788044268 35° C 36% 1012.5 hPa 0 mm - 57 W/m² -
1788043964 35° C 36% 1012.7 hPa 0 mm - 58 W/m² -
1788043659 35° C 36% 1012.7 hPa 0 mm - 58 W/m² -
1788043355 35.56° C 35% 1012.8 hPa 0 mm - 69 W/m² -
1788043054 35.56° C 35% 1012.6 hPa 0 mm - 62 W/m² -
1788042749 36.11° C 34% 1012.7 hPa 0 mm - 68 W/m² -
1788042448 36.11° C 34% 1012.6 hPa 0 mm - 290 W/m² -
1788042144 36.11° C 33% 1012.8 hPa 0 mm - 307 W/m² -
1788041840 36.11° C 35% 1012.7 hPa 0 mm - 324 W/m² -
1788041540 36.11° C 35% 1012.8 hPa 0 mm - 339 W/m² -
1788041235 36.11° C 35% 1012.7 hPa 0 mm - 353 W/m² -
1788040933 36.11° C 35% 1012.8 hPa 0 mm - 367 W/m² -
1788040632 36.11° C 35% 1012.8 hPa 0 mm - 384 W/m² -
1788040328 36.67° C 35% 1012.8 hPa 0 mm - 398 W/m² -
1788040028 36.11° C 35% 1012.8 hPa 0 mm - 414 W/m² -
1788039723 36.11° C 34% 1012.9 hPa 0 mm - 427 W/m² -

* Rain latest hour (hover to see other rain measurements)
** Current wind speed in m/s (hover to see current wind gust speed)